Voltar ao catálogo

CZ-6A DEB

AtivoSSO
NORAD 55546·DEBRIS·🇨🇳 China

Lançado Nov 11, 2022 de Taiyuan Satellite Launch Center

Loading…

Próximas Passagens (próximas 24 horas)

TLE

AtualizadoSource: Space-Track

Época: Sep 14, 2026, 14:43 UTC

1 55546U 22151YU  26257.61356726  .00000941  00000-0  24055-3 0  9997
2 55546  98.5981 312.3677 0131318  45.7995 315.3896 14.47879015201949

Acompanhe CZ-6A DEB em tempo real com AllMySat

Download on the App Store